Regional Weather Roundup
Issued by NWS

Home | Current Version | Previous Version | Graphics & Text | Print | Product List | Glossary On
Versions: 1 2 3 4 5 6 7 8 9 10 11 12 13 14 15 16 17 18 19 20 21 22 23 24 25 26 27 28 29 30 31 32 33 34 35 36 37 38 39 40 41 42 43 44 45 46 47 48 49 50
000
ASUS43 KMPX 300610
RWRMN
WEATHER ROUNDUP FOR MINNESOTA
NATIONAL WEATHER SERVICE TWIN CITIES/CHANHASSEN MN
100 AM CDT FRI SEP 30 2016


NOTE: "FAIR" INDICATES FEW OR NO CLOUDS BELOW 12,000 FEET WITH NO
SIGNIFICANT WEATHER AND/OR OBSTRUCTIONS TO VISIBILITY. N/A MEANS
CURRENT SKY AND/OR WEATHER CONDITIONS ARE NOT AVAILABLE.

MNZ060>063-068>070-300700-
   Twin Cities Metro

CITY           SKY/WX    TMP DP  RH WIND       PRES   REMARKS
TWIN CITIES    CLEAR     56  51  84 CALM      30.39S
6HR MIN TEMP:  56; 6HR MAX TEMP:  64;

ST PAUL        CLEAR     56  51  84 E5        30.39F
CRYSTAL        CLEAR     49  46  90 CALM      30.38S FOG
BLAINE         CLEAR     52  52 100 CALM      30.39F FOG
LAKEVILLE      CLEAR     48  48 100 CALM      30.38F
EDEN PRAIRIE   CLEAR     53  50  89 NE5       30.37F
6HR MIN TEMP:  53; 6HR MAX TEMP:  63;

LAKEVILLE      CLEAR     48  48 100 CALM      30.38F
SOUTH ST PAUL  CLEAR     56  51  85 CALM      30.39S
LAKE ELMO      FAIR      54  52  94 CALM      30.40S
$$
MNZ001>005-007-008-013>017-022>024-027-028-300700-
   Northwest Minnesota

CITY           SKY/WX    TMP DP  RH WIND       PRES   REMARKS
BEMIDJI        CLOUDY    52  47  84 SE9G16    30.42S
HALLOCK        CLEAR     50  46  87 SE9       30.37S
ROSEAU         CLEAR     46  43  87 CALM      30.41S
WARROAD        CLEAR     48  45  87 SE6       30.42F
THIEF RVR FALL CLEAR     47  43  86 SE7       30.41S
CROOKSTON      CLEAR     48  45  87 SE9       30.39F
FOSSTON        CLEAR     46  43  87 SE6       30.41F
DETROIT LAKES  CLEAR     52  46  82 SE9       30.41S
MOORHEAD       CLEAR     48  45  87 E6        30.38F
PARK RAPIDS    CLEAR     50  45  83 SE5       30.42S
MAHNOMEN       FAIR      48  44  88 SE5       30.39F
$$
MNZ006-009>011-018-025>026-300700-
   North Central Minnesota

CITY           SKY/WX    TMP DP  RH WIND       PRES   REMARKS
BAUDETTE       CLOUDY    53  48  83 SE7       30.44S
FLAG ISLAND    CLOUDY    55  50  82 SE13      30.42R
INTL FALLS     CLOUDY    47  45  93 SE5       30.45F
6HR MIN TEMP:  44; 6HR MAX TEMP:  55;

WASKISH        CLOUDY    52  48  87 E5        30.43F
BIG FORK       CLEAR     45  43  93 CALM      30.45S
GRAND RAPIDS   CLEAR     46  45  96 CALM      30.46S
CRANE LAKE     CLEAR     41  39  93 CALM      30.48F
ORR            CLEAR     45  41  87 CALM      30.44S
COOK           CLEAR     43  43 100 CALM      30.46S
WALKER         CLOUDY    51  46  84 SE5       30.42F
$$
MNZ012-019>021-037-300700-
   Northeast Minnesota

CITY           SKY/WX    TMP DP  RH WIND       PRES   REMARKS
DULUTH         FOG       51  51 100 E9        30.45S VSB 1/2
6HR MIN TEMP:  50; 6HR MAX TEMP:  53;

ELY            CLEAR     41  39  93 CALM      30.46S
HIBBING        CLOUDY    45  45 100 SE6       30.46R FOG
EVELETH        FOG       46  45  97 CALM      30.46F VSB 3/4
DULUTH HARBOR  CLOUDY    54  52  94 E13       30.46F
TWO HARBORS    CLOUDY    55  50  82 E9        30.45S
SILVER BAY     CLOUDY    54  52  94 CALM      30.45F
GRAND MARAIS     N/A     48  47  96 CALM      30.46F
G MARAIS ARPRT CLEAR     45  41  87 N5        30.48F
$$
MNZ029>031-032-039>041-046>048-054>057-064-300700-
   West Central Minnesota

CITY           SKY/WX    TMP DP  RH WIND       PRES   REMARKS
FERGUS FALLS   CLEAR     52  46  82 E8        30.40F
MORRIS         CLEAR     48  46  93 E7        30.37F
ALEXANDRIA     CLEAR     49  48  97 E8        30.41F
ELBOW LAKE     FAIR      50  47  92 SE7       30.39F
WADENA         CLEAR     45  45 100 E6        30.41F
GLENWOOD       CLEAR     46  45  93 E5        30.41S
APPLETON       CLEAR     48  45  87 E5        30.37F
BENSON         CLEAR     48  45  87 SE5       30.39S
ORTONVILLE     CLEAR     48  45  87 CALM      30.37S
MADISON        CLEAR     48  46  93 SE5       30.37S
WILLMAR        FAIR      46  46 100 E5        30.40F
$$
MNZ033>034-036-042>043-049>051-058-059-300700-
   Central Minnesota

CITY           SKY/WX    TMP DP  RH WIND       PRES   REMARKS
ST CLOUD       CLEAR     50  49  96 NE3       30.41S
6HR MIN TEMP:  50; 6HR MAX TEMP:  60;

SAUK CENTRE    FAIR      48  47  95 E6        30.41S
PAYNESVILLE    CLEAR     46  46 100 CALM      30.41S
AITKIN         CLOUDY    52  46  82 E5        30.42S FOG
PINE RIVER     CLEAR     45  45 100 CALM      30.45S
BRAINERD       CLEAR     47  46  97 CALM      30.43S
STAPLES        FOG       43  43 100 CALM      30.42S VSB 3/4
LONG PRAIRIE   FAIR      45  43  93 CALM      30.42S
LITTLE FALLS   CLEAR     48  45  87 E3        30.41F
LITCHFIELD     CLEAR     48  48 100 CALM      30.40S
BUFFALO        CLEAR     50  47  90 NE5       30.40S
MAPLE LAKE     CLEAR     48  48  99 N3        30.40F
HUTCHINSON     CLEAR     47  47  99 CALM      30.39F
$$
MNZ037-044-045-052-053-300700-
   East Central Minnesota

CITY           SKY/WX    TMP DP  RH WIND       PRES   REMARKS
PRINCETON      CLEAR     48  46  93 N3        30.41S
MORA           PTCLDY    46  45  93 NE3       30.43F
CAMBRIDGE      CLEAR     52  48  87 CALM      30.39F
MOOSE LAKE     CLOUDY    52  48  87 E5        30.42S
HINCKLEY       CLOUDY    50  50 100 CALM      30.43S FOG
CLOQUET        CLOUDY    52  48  87 E8        30.44F FOG
MCGREGOR       CLOUDY    50  50 100 E5        30.44F
$$
MNZ071>073-080-081-089-090-097-098-300700-
   Southwest Minnesota

CITY           SKY/WX    TMP DP  RH WIND       PRES   REMARKS
MONTEVIDEO     CLEAR     48  46  93 S6        30.39F
GRANITE FALLS  CLEAR     51  48  90 E3        30.40S
CANBY          CLEAR     45  44  96 CALM      30.38F
MARSHALL       CLEAR     46  44  93 CALM      30.38F
REDWOOD FALLS  CLEAR     50  47  89 NE3       30.38S
OLIVIA         CLEAR     50  46  87 CALM      30.38S
PIPESTONE      CLEAR     48  45  87 E5        30.37S
WINDOM         CLEAR     48  46  93 E3        30.37F
WORTHINGTON    CLEAR     48  45  89 E7        30.38S
JACKSON        CLEAR     45  41  87 CALM      30.38F
TRACY          CLEAR     52  48  86 CALM      30.38F
SLAYTON        CLEAR     45  43  93 CALM      30.38F
$$
MNZ065>067-074>077-082>085-091>093-300700-
   South Central Minnesota

CITY           SKY/WX    TMP DP  RH WIND       PRES   REMARKS
MANKATO        CLEAR     54  50  86 E5        30.38S
NEW ULM        CLEAR     54  48  82 E3        30.37F
ST JAMES       CLEAR     46  45  93 CALM      30.38F
FAIRMONT       CLEAR     47  45  93 NW3       30.37F
GLENCOE        CLEAR     48  49 100 CALM      30.38S
FARIBAULT      CLEAR     50  48  93 N3        30.38S
OWATONNA       CLEAR     46  45  93 CALM      30.37F
WASECA         CLEAR     52  48  87 NE6       30.38S
ALBERT LEA     CLEAR     50  48  93 CALM      30.36F
$$
MNZ078>079-086>088-094>096-300700-
   Southeast Minnesota

CITY           SKY/WX    TMP DP  RH WIND       PRES   REMARKS
ROCHESTER      CLEAR     53  50  89 NE7       30.36F
6HR MIN TEMP:  53; 6HR MAX TEMP:  61;

RED WING       CLEAR     54  52  94 CALM      30.37F
STANTON        CLEAR     47  45  95 CALM      30.37S
DODGE CENTER   CLEAR     50  48  93 N6        30.37S
WINONA         CLEAR     52  52 100 NW3       30.36F
AUSTIN         CLEAR     48  46  93 CALM      30.35F
PRESTON        CLEAR     51  48  87 NE5       30.36S
$$
ABBREVIATIONS USED IN REMARKS
   TC - TEMPERATURES IN CELSIUS
  WCI - WIND CHILL INDEX
   HX - HEAT INDEX
  VSB - VISIBILITY
$$




USA.gov is the U.S. government's official web portal to all federal, state and local government web resources and services.